Location: Barruelo
(41.2448°N, 3.8231°W)
Time: 22:44:41
(UTC+00:00)

SOZ - Visible Passes

Search period start: 14 March 2026 00:00
Search period end: 24 March 2026 00:00
Orbit: 294 x 12077 km, 52.0° (Epoch: 14 March)

Date Brightness Start Highest point End Pass type
(mag) Time Alt. Az. Time Alt. Az. Time Alt. Az.
14 Mar 10.0 01:20:30 10° S 02:10:10 36° SE 02:25:21 10° ENE visible
14 Mar 7.8 05:49:42 10° WSW 06:21:00 67° NNW 06:27:52 10° NE visible
15 Mar 10.3 00:42:43 10° SSE 01:28:13 29° SE 01:44:26 10° ENE visible
15 Mar 8.0 05:02:17 10° SW 05:40:30 80° NW 05:48:17 10° NE visible
16 Mar 10.3 00:07:33 10° SSE 00:46:09 23° ESE 01:02:37 10° E visible
16 Mar 8.3 04:14:57 10° SW 04:59:42 88° SE 05:08:32 10° NE visible
16 Mar 10.5 23:47:55 14° SE 00:04:05 17° ESE 00:19:03 10° E visible
17 Mar 8.6 03:42:18 19° SW 04:18:34 77° SE 04:28:36 10° ENE visible
17 Mar 10.7 23:13:48 10° ESE 23:22:10 11° ESE 23:28:57 10° ESE visible
18 Mar 8.9 03:07:16 26° SSW 03:37:03 66° SE 03:48:27 10° ENE visible
19 Mar 9.3 02:30:59 32° S 02:55:07 57° SE 03:08:05 10° ENE visible
20 Mar 9.6 01:53:57 34° S 02:12:47 48° SE 02:27:23 10° ENE visible
20 Mar 7.8 05:55:59 10° WSW 06:22:29 54° NNW 06:28:49 10° NE visible
21 Mar 9.9 01:16:23 34° SSE 01:30:05 41° SE 01:46:20 10° ENE visible
21 Mar 7.9 05:10:06 12° WSW 05:41:14 65° NNW 05:48:31 10° NE visible
22 Mar 10.2 00:38:23 31° SE 00:47:10 33° SE 01:04:45 10° ENE visible
22 Mar 8.1 04:32:02 20° WSW 04:59:47 76° NW 05:08:05 10° NE visible
23 Mar 10.3 00:00:02 26° SE 00:04:08 27° ESE 00:22:24 10° ENE visible
23 Mar 8.4 03:53:38 28° SW 04:18:02 88° NW 04:27:30 10° NE visible
23 Mar 10.4 23:21:23 20° ESE 23:21:23 20° ESE 23:38:45 10° E visible
